Powrót do katalogu

CZ-6A DEB

AktywnyPO
NORAD 55196·DEBRIS·🇨🇳 China

Wystrzelony Nov 11, 2022 z Taiyuan Satellite Launch Center

Loading…

Następne Przeloty (najbliższe 24 godziny)

TLE

ŚwieżeSource: Space-Track

Epoka: Sep 13, 2026, 19:10 UTC

1 55196U 22151VM  26256.79863157  .00010702  00000-0  12340-2 0  9996
2 55196  98.6274 339.6809 0055633 334.0512  25.7913 14.84752418198810

Śledź CZ-6A DEB w czasie rzeczywistym z AllMySat

Download on the App Store